File timestamp: Fri Sep 16 01:00:00 2016, Internal temp: 17.852783203125
1473987601.002, 0.00267326505854726, -0.141590893268585, 0.172968670725822, 32133, 31339, 23447, 128.40705871582
1473987602.002, -0.000300656392937526, -0.142040938138962, 0.173016563057899, 32124, 31344, 23434, NaN
1473987603.002, -0.00286391493864357, -0.142100602388382, 0.172913447022438, 32119, 31362, 23437, NaN
1473987604.002, -0.00391576206311584, -0.141820818185806, 0.172974929213524, 32131, 31340, 23427, NaN
1473987605.002, -0.00342709408141673, -0.141215175390244, 0.173252180218697, 32130, 31351, 23451, NaN
1473987606.002, -0.00623995997011662, -0.139658451080322, 0.173929467797279, 32130, 31356, 23450, NaN
1473987607.002, -0.0118667278438807, -0.140906497836113, 0.173343345522881, 32124, 31355, 23444, NaN
1473987608.002, -0.0169016923755407, -0.141348600387573, 0.173799678683281, 32119, 31345, 23437, NaN
1473987609.002, -0.0185065921396017, -0.141378968954086, 0.173908233642578, 32123, 31346, 23426, NaN
1473987609.002, -0.0152070429176092, -0.1407330930233, 0.174101501703262, 32125, 31352, 23426, NaN
1473987610.004, -0.00997515581548214, -0.140436008572578, 0.17453607916832, 32107, 31328, 23446, NaN
1473987611.004, -0.00687925145030022, -0.140480726957321, 0.174958348274231, 32124, 31351, 23454, NaN
1473987612.004, -0.0095202662050724, -0.141154199838638, 0.174935072660446, 32119, 31356, 23437, NaN
1473987613.004, -0.0119751691818237, -0.141105979681015, 0.174158647656441, 32119, 31346, 23440, NaN
1473987614.004, -0.0120362704619765, -0.141212359070778, 0.17360831797123, 32127, 31331, 23431, NaN
1473987615.004, -0.00818341132253408, -0.142033144831657, 0.173174723982811, 32148, 31344, 23436, NaN
1473987616.004, -0.00572171807289124, -0.14204865694046, 0.172397792339325, 32123, 31351, 23442, NaN
1473987617.004, -0.00745954783633351, -0.141717880964279, 0.172362014651299, 32103, 31352, 23448, NaN
1473987618.004, -0.00921526085585356, -0.141112372279167, 0.171880602836609, 32110, 31330, 23452, NaN
1473987619.004, -0.011979560367763, -0.141273275017738, 0.172274515032768, 32122, 31337, 23437, NaN
1473987620.004, -0.0101011572405696, -0.140513807535172, 0.17259769141674, 32127, 31344, 23442, NaN
1473987621.004, -0.0108440341427922, -0.140026435256004, 0.172146141529083, 32110, 31354, 23458, NaN
1473987622.004, -0.0103512266650796, -0.140378639101982, 0.172056466341019, 32113, 31345, 23452, NaN
1473987623.004, -0.010295519605279, -0.141295298933983, 0.172919735312462, 32134, 31340, 23442, NaN
1473987624.004, -0.00557367643341422, -0.141858801245689, 0.172963693737984, 32139, 31353, 23440, NaN
1473987625.004, -0.00100030901376158, -0.142289876937866, 0.172556310892105, 32140, 31343, 23442, NaN
1473987626.004, 0.00185078312642872, -0.142502576112747, 0.173325836658478, 32125, 31346, 23442, NaN
1473987627.004, 0.00157860096078366, -0.143064796924591, 0.173560246825218, 32135, 31327, 23425, NaN
1473987628.004, 0.00308551196940243, -0.142879888415337, 0.173701763153076, 32124, 31366, 23431, NaN
1473987629.004, 0.00551813514903188, -0.142603278160095, 0.173780739307404, 32112, 31348, 23446, NaN
1473987630.004, 0.00966163352131844, -0.142533525824547, 0.173865392804146, 32126, 31326, 23441, NaN
1473987631.004, 0.0153786046430469, -0.142726853489876, 0.173872739076614, 32118, 31335, 23442, NaN
1473987632.004, 0.0192093960940838, -0.14209271967411, 0.173091873526573, 32103, 31356, 23444, NaN
1473987633.004, 0.02124098315835, -0.142280280590057, 0.173079818487167, 32158, 31347, 23455, NaN
1473987634.004, 0.0189298111945391, -0.143123552203178, 0.172721311450005, 32101, 31375, 23443, NaN
1473987635.004, 0.0152059113606811, -0.143631085753441, 0.173133432865143, 32126, 31348, 23453, NaN
1473987636.004, 0.0118933012709022, -0.144012227654457, 0.173224970698357, 32121, 31338, 23442, NaN
1473987637.004, 0.0113376919180155, -0.143574103713036, 0.172922387719154, 32122, 31332, 23451, NaN
1473987637.004, 0.010945095680654, -0.1425921022892, 0.172693133354187, 32145, 31337, 23444, NaN
1473987638.01, 0.00846064742654562, -0.142735257744789, 0.172751203179359, 32138, 31342, 23443, NaN
1473987639.01, 0.00372522859834135, -0.142634242773056, 0.172981381416321, 32137, 31358, 23435, NaN
1473987640.01, 0.000508578144945204, -0.142920762300491, 0.172330051660538, 32152, 31346, 23424, NaN
1473987641.01, -1.56534879351966e-05, -0.142796039581299, 0.172133922576904, 32099, 31339, 23415, NaN
1473987641.01, 0.000175679509993643, -0.142865553498268, 0.171418040990829, 32124, 31335, 23444, NaN
1473987642.018, -0.00175837462302297, -0.14352485537529, 0.171298116445541, 32137, 31320, 23439, NaN
1473987643.018, -0.00408576149493456, -0.143580377101898, 0.171964302659035, 32118, 31350, 23449, NaN
1473987644.018, -0.00517135066911578, -0.14421446621418, 0.171959459781647, 32122, 31349, 23458, NaN
1473987645.018, -0.00559007935225964, -0.144129559397697, 0.171863287687302, 32136, 31343, 23434, NaN
1473987645.018, -0.00373580725863576, -0.143871784210205, 0.171304151415825, 32122, 31345, 23437, NaN
1473987646.026, -0.00107184948865324, -0.143326610326767, 0.170869529247284, 32133, 31351, 23451, NaN
1473987647.026, 0.00275779375806451, -0.142263442277908, 0.1702581346035, 32126, 31337, 23427, NaN
1473987648.026, 0.00515425624325871, -0.14182922244072, 0.170289233326912, 32121, 31355, 23444, NaN
1473987649.026, 0.00493853399530053, -0.142523109912872, 0.170063242316246, 32131, 31350, 23432, NaN
1473987650.016, 0.00246938969939947, -0.143164604902267, 0.169259801506996, 32125, 31339, 23432, NaN
1473987651.016, 0.000769264996051788, -0.142964288592339, 0.169315755367279, 32110, 31349, 23432, NaN
1473987652.016, 0.00182485324330628, -0.142354682087898, 0.169432118535042, 32140, 31342, 23429, NaN
1473987653.016, 0.00365456892177463, -0.142052993178368, 0.168807119131088, 32122, 31362, 23425, NaN
1473987654.016, 0.00187084078788757, -0.142185226082802, 0.169500231742859, 32133, 31355, 23446, NaN
1473987655.016, -0.00214138743467629, -0.141649380326271, 0.169337764382362, 32136, 31352, 23430, NaN
1473987656.016, -0.00568983610719442, -0.141594231128693, 0.169836521148682, 32136, 31362, 23442, NaN
1473987657.016, -0.00782105699181557, -0.141828507184982, 0.169508740305901, 32124, 31333, 23448, 131.951171875
1473987658.016, -0.00786453951150179, -0.142470702528954, 0.168871343135834, 32124, 31330, 23438, NaN
1473987659.016, -0.0085133658722043, -0.143078848719597, 0.168787091970444, 32136, 31346, 23433, NaN
1473987660.016, -0.00659723067656159, -0.143418580293655, 0.168767124414444, 32126, 31348, 23435, NaN
1473987661.016, -0.00466378591954708, -0.14314079284668, 0.169187694787979, 32122, 31356, 23431, NaN
1473987662.016, 1.27348621390411e-05, -0.143233343958855, 0.169187903404236, 32126, 31352, 23438, NaN
1473987663.016, 0.000509081117343158, -0.143509656190872, 0.169636189937592, 32136, 31347, 23445, NaN
1473987664.016, -0.000890195835381746, -0.143226832151413, 0.169345572590828, 32116, 31335, 23446, NaN
1473987664.016, -0.00365347578190267, -0.143403351306915, 0.170283257961273, 32104, 31338, 23445, NaN
1473987665.018, -0.00447937194257975, -0.141955375671387, 0.16974101960659, 32126, 31315, 23439, NaN
1473987666.018, -0.00413730554282665, -0.141892343759537, 0.169531166553497, 32130, 31339, 23435, NaN
1473987667.018, -0.00157196761574596, -0.142527043819427, 0.169288769364357, 32127, 31352, 23451, NaN
1473987668.018, 0.000103619015135337, -0.141795799136162, 0.169318661093712, 32109, 31344, 23452, NaN
1473987668.018, 0.00255900784395635, -0.141974464058876, 0.168898016214371, 32108, 31364, 23438, NaN
1473987669.02, 0.00595185207203031, -0.142179951071739, 0.169163286685944, 32143, 31340, 23433, NaN
1473987670.02, 0.00986023154109716, -0.142705023288727, 0.169522926211357, 32119, 31331, 23443, NaN
1473987671.02, 0.0168140269815922, -0.142409294843674, 0.16911968588829, 32124, 31360, 23437, NaN
1473987672.02, 0.0257154926657677, -0.14257775247097, 0.169074386358261, 32133, 31344, 23438, NaN
1473987673.02, 0.0345002897083759, -0.14244382083416, 0.169249385595322, 32109, 31356, 23450, NaN
1473987674.02, 0.0415445975959301, -0.14263080060482, 0.1686692237854, 32142, 31368, 23445, NaN
1473987675.02, 0.0460078753530979, -0.142172113060951, 0.168471127748489, 32117, 31343, 23433, NaN
1473987676.02, 0.049199040979147, -0.141637623310089, 0.167594641447067, 32138, 31339, 23442, NaN
1473987677.02, 0.0522929802536964, -0.141561388969421, 0.16754187643528, 32152, 31336, 23452, NaN
1473987678.02, 0.0538965910673141, -0.141298368573189, 0.167028725147247, 32133, 31331, 23419, NaN
1473987679.02, 0.0548487044870853, -0.140523716807365, 0.166702926158905, 32136, 31338, 23454, NaN
1473987680.02, 0.0498305782675743, -0.140395969152451, 0.16689233481884, 32138, 31353, 23441, NaN
1473987681.02, 0.0442044697701931, -0.139565706253052, 0.166835442185402, 32134, 31332, 23445, NaN
1473987682.02, 0.0389413200318813, -0.139625906944275, 0.166770577430725, 32114, 31349, 23442, NaN
1473987683.02, 0.0338918156921864, -0.139314740896225, 0.166734844446182, 32118, 31350, 23449, NaN
1473987684.02, 0.0246739462018013, -0.139178916811943, 0.166396155953407, 32140, 31333, 23442, NaN
1473987685.02, 0.0153663093224168, -0.138795614242554, 0.166905879974365, 32128, 31352, 23447, NaN
1473987686.02, 0.00694343959912658, -0.139172002673149, 0.166909798979759, 32138, 31339, 23416, NaN
1473987687.02, 0.00175403652247041, -0.138962551951408, 0.166698649525642, 32108, 31361, 23439, NaN
1473987688.02, -0.00483662262558937, -0.139494672417641, 0.166426971554756, 32127, 31340, 23453, NaN
1473987689.02, -0.0134942065924406, -0.139165341854095, 0.166330605745316, 32142, 31338, 23427, NaN
1473987690.02, -0.0191887579858303, -0.138418793678284, 0.166373535990715, 32131, 31348, 23437, NaN
1473987691.02, -0.0224776100367308, -0.138028189539909, 0.166263654828072, 32123, 31360, 23444, NaN
1473987692.02, -0.0279122609645128, -0.138032704591751, 0.166333556175232, 32134, 31347, 23424, NaN
1473987693.02, -0.0375071652233601, -0.138057023286819, 0.166561394929886, 32134, 31339, 23434, NaN
1473987694.02, -0.0481538474559784, -0.138071283698082, 0.166384354233742, 32117, 31345, 23440, NaN
1473987695.02, -0.0545639283955097, -0.139232143759727, 0.166391253471375, 32122, 31336, 23445, NaN
1473987696.02, -0.0602470226585865, -0.139375224709511, 0.166786685585976, 32112, 31336, 23431, NaN
1473987696.02, -0.0651295334100723, -0.139268159866333, 0.166880860924721, 32116, 31350, 23446, NaN
1473987697.028, -0.070247158408165, -0.139434635639191, 0.167717829346657, 32123, 31359, 23462, NaN
1473987698.028, -0.0763770416378975, -0.13958415389061, 0.168215185403824, 32146, 31347, 23435, NaN
1473987699.028, -0.0784913301467896, -0.139962911605835, 0.168671935796738, 32113, 31348, 23441, NaN
1473987700.028, -0.0781005620956421, -0.140212923288345, 0.168710440397263, 32136, 31375, 23434, NaN
1473987700.028, -0.0757495164871216, -0.140966445207596, 0.16887454688549, 32119, 31344, 23451, NaN
1473987701.036, -0.073025606572628, -0.140971377491951, 0.169340446591377, 32137, 31352, 23446, NaN
1473987702.036, -0.0684975311160088, -0.141557902097702, 0.169085621833801, 32111, 31323, 23440, NaN
1473987703.036, -0.0635888203978539, -0.141405984759331, 0.169950440526009, 32121, 31341, 23441, NaN
1473987704.036, -0.0626515075564384, -0.141835615038872, 0.169875159859657, 32120, 31347, 23440, NaN
1473987704.036, -0.0620270483195782, -0.141513451933861, 0.169766530394554, 32115, 31355, 23443, NaN
1473987705.044, -0.0602185055613518, -0.142031386494637, 0.170363962650299, 32116, 31351, 23435, NaN
1473987706.044, -0.0522373951971531, -0.141603201627731, 0.170615270733833, 32112, 31357, 23440, NaN
1473987707.044, -0.0419502444565296, -0.141415953636169, 0.171809479594231, 32138, 31346, 23442, NaN
1473987708.044, -0.0292931366711855, -0.141545087099075, 0.171644404530525, 32127, 31355, 23439, NaN
1473987709.034, -0.0184200257062912, -0.142250582575798, 0.171799421310425, 32107, 31343, 23451, NaN
1473987710.034, -0.00328749767504632, -0.142492324113846, 0.17212963104248, 32110, 31343, 23450, NaN
1473987711.034, 0.0169935375452042, -0.143435209989548, 0.172118291258812, 32134, 31352, 23436, NaN
1473987712.034, 0.0481002517044544, -0.143182903528214, 0.17107293009758, 32125, 31342, 23439, 134.302795410156
1473987713.034, 0.0882740616798401, -0.142678827047348, 0.171254277229309, 32123, 31351, 23449, NaN
1473987714.034, 0.132308930158615, -0.143075749278069, 0.171012952923775, 32125, 31352, 23438, NaN
1473987715.034, 0.176478728652, -0.143213897943497, 0.171187356114388, 32138, 31352, 23454, NaN
1473987716.034, 0.216105997562408, -0.143079623579979, 0.171451285481453, 32133, 31350, 23445, NaN
1473987717.034, 0.254607230424881, -0.143713489174843, 0.171699211001396, 32121, 31362, 23454, NaN
1473987718.034, 0.288902223110199, -0.143469408154488, 0.171617910265923, 32118, 31345, 23432, NaN
1473987719.034, 0.21730075776577, -0.143797770142555, 0.171912997961044, 32127, 31339, 23437, NaN
1473987720.034, 0.139540135860443, -0.144533216953278, 0.172201544046402, 32127, 31341, 23431, NaN
1473987721.034, 0.0737012773752213, -0.145081385970116, 0.172188624739647, 32121, 31347, 23440, NaN
1473987722.034, 0.0187844019383192, -0.145352959632874, 0.172795072197914, 32130, 31334, 23447, NaN
1473987723.034, -0.026187002658844, -0.145256608724594, 0.173030868172646, 32145, 31339, 23431, NaN
1473987723.034, -0.0621624179184437, -0.144728645682335, 0.172985792160034, 32133, 31337, 23443, NaN
1473987724.036, -0.0900603905320168, -0.145490378141403, 0.173561260104179, 32149, 31357, 23436, NaN
1473987725.036, -0.110764712095261, -0.146057620644569, 0.173607513308525, 32102, 31349, 23458, NaN
1473987726.036, -0.125120878219604, -0.146604090929031, 0.172962367534637, 32112, 31338, 23435, NaN
1473987727.036, -0.133932858705521, -0.146503612399101, 0.173434123396873, 32117, 31343, 23441, NaN
1473987727.036, -0.137960314750671, -0.146162614226341, 0.174153178930283, 32135, 31363, 23441, NaN
1473987728.038, -0.137916252017021, -0.147256821393967, 0.175059705972672, 32137, 31333, 23431, NaN
1473987729.038, -0.134465351700783, -0.147864028811455, 0.175589740276337, 32135, 31337, 23442, NaN
1473987730.038, -0.128222599625587, -0.147471949458122, 0.176132917404175, 32102, 31337, 23439, NaN
1473987731.038, -0.119752712547779, -0.148272022604942, 0.176106572151184, 32139, 31339, 23444, NaN
1473987732.038, -0.10956984013319, -0.147824227809906, 0.176296815276146, 32127, 31351, 23430, NaN
1473987733.038, -0.0981380119919777, -0.148530796170235, 0.176338031888008, 32139, 31349, 23438, NaN
1473987734.038, -0.0858718678355217, -0.148378908634186, 0.176602557301521, 32131, 31330, 23443, NaN
1473987735.038, -0.0731378942728043, -0.147564485669136, 0.176816076040268, 32117, 31339, 23443, NaN
1473987736.038, -0.0602560825645924, -0.147526428103447, 0.176218897104263, 32118, 31344, 23433, NaN
1473987737.038, -0.0475018210709095, -0.14792862534523, 0.175619602203369, 32100, 31347, 23442, NaN
1473987738.038, -0.0351081900298595, -0.148589313030243, 0.175392583012581, 32120, 31338, 23444, NaN
1473987739.038, -0.0232684165239334, -0.149266973137856, 0.175298869609833, 32129, 31365, 23444, NaN
1473987740.038, -0.0121385427191854, -0.149032041430473, 0.175501763820648, 32122, 31343, 23438, NaN
1473987741.038, -0.00184023333713412, -0.149110823869705, 0.175291433930397, 32122, 31346, 23443, NaN
1473987742.038, 0.00753632700070739, -0.148564070463181, 0.175863564014435, 32128, 31348, 23438, NaN
1473987743.038, 0.0159294847398996, -0.148079186677933, 0.175692722201347, 32125, 31341, 23445, NaN
1473987744.038, 0.0233031697571278, -0.147142544388771, 0.176130950450897, 32131, 31320, 23428, NaN
1473987745.038, 0.0296439565718174, -0.147664576768875, 0.176117762923241, 32109, 31336, 23450, NaN
1473987746.038, 0.0343960225582123, -0.14653542637825, 0.175907984375954, 32129, 31337, 23445, NaN
1473987747.038, 0.0336754210293293, -0.146546214818954, 0.175652086734772, 32103, 31355, 23453, NaN
1473987748.038, 0.0278714429587126, -0.146155402064323, 0.176390647888184, 32128, 31346, 23444, NaN
1473987749.038, 0.0238289795815945, -0.145525753498077, 0.176890090107918, 32129, 31325, 23450, NaN
1473987750.038, 0.022413844242692, -0.144977763295174, 0.176505833864212, 32122, 31332, 23429, NaN
1473987750.038, 0.0203631315380335, -0.143685206770897, 0.177000775933266, 32130, 31339, 23452, NaN
1473987751.044, 0.0127490302547812, -0.143671840429306, 0.176022738218307, 32135, 31345, 23435, NaN
1473987752.044, 0.00589443603530526, -0.143470510840416, 0.176797941327095, 32127, 31337, 23435, NaN
1473987753.044, 0.00418753223493695, -0.143225997686386, 0.177694410085678, 32114, 31366, 23454, NaN
1473987754.044, 0.00275031989440322, -0.141772210597992, 0.177243188023567, 32115, 31343, 23458, NaN
1473987754.044, 0.00264509138651192, -0.141408607363701, 0.17735743522644, 32133, 31377, 23433, NaN
1473987755.052, 0.00140376668423414, -0.141692712903023, 0.177614599466324, 32125, 31340, 23442, NaN
1473987756.052, 0.00146930327173322, -0.141797482967377, 0.178994163870811, 32112, 31348, 23443, NaN
1473987757.052, 0.00216769659891725, -0.142179861664772, 0.179796859622002, 32127, 31342, 23440, NaN
1473987758.052, 0.00740941241383553, -0.141724169254303, 0.178437814116478, 32110, 31333, 23444, NaN
1473987758.052, 0.0139722600579262, -0.141798868775368, 0.178610756993294, 32139, 31320, 23440, NaN
1473987759.042, 0.0202555656433105, -0.141593486070633, 0.178501948714256, 32128, 31355, 23460, NaN
1473987760.042, 0.0219975039362907, -0.141960874199867, 0.178624123334885, 32118, 31370, 23444, NaN
1473987761.042, 0.0233504045754671, -0.142778694629669, 0.17850099503994, 32116, 31343, 23436, NaN
1473987762.042, 0.0281425397843122, -0.142605140805244, 0.177923008799553, 32126, 31337, 23447, NaN
1473987762.042, 0.0339757911860943, -0.142425000667572, 0.17829917371273, 32118, 31346, 23445, NaN
1473987763.05, 0.0388549007475376, -0.141808092594147, 0.178103968501091, 32130, 31353, 23444, NaN
1473987764.05, 0.0411797724664211, -0.142342075705528, 0.178049474954605, 32109, 31352, 23441, NaN
1473987765.05, 0.0447284169495106, -0.142381876707077, 0.177467793226242, 32123, 31336, 23437, NaN
1473987766.04, 0.0506887249648571, -0.142298877239227, 0.177242636680603, 32121, 31353, 23444, 135.410736083984
1473987767.04, 0.0544657446444035, -0.141124948859215, 0.177389115095139, 32120, 31335, 23436, NaN
1473987768.04, 0.0591412112116814, -0.141520783305168, 0.17683070898056, 32122, 31353, 23460, NaN
1473987769.04, 0.0601940713822842, -0.141657680273056, 0.175755679607391, 32133, 31335, 23440, NaN
1473987770.04, 0.0643876865506172, -0.142141312360764, 0.175168395042419, 32125, 31340, 23443, NaN
1473987771.04, 0.0644388645887375, -0.14217883348465, 0.175538033246994, 32117, 31334, 23447, NaN
1473987772.04, 0.0600620321929455, -0.1419687718153, 0.1744354814291, 32121, 31341, 23438, NaN
1473987773.04, 0.0552676133811474, -0.141597509384155, 0.174311026930809, 32135, 31341, 23448, NaN
1473987774.04, 0.0510270185768604, -0.141566544771194, 0.173212513327599, 32141, 31352, 23441, NaN
1473987775.04, 0.0472390539944172, -0.141652926802635, 0.172161385416985, 32127, 31339, 23438, NaN
1473987776.04, 0.0434722863137722, -0.141610100865364, 0.171912014484406, 32132, 31337, 23437, NaN
1473987777.04, 0.0365779921412468, -0.141682788729668, 0.171863093972206, 32125, 31375, 23446, NaN
1473987778.04, 0.0289275702089071, -0.142026841640472, 0.17216083407402, 32135, 31346, 23429, NaN
1473987779.04, 0.0230191238224506, -0.141708701848984, 0.171499088406563, 32124, 31337, 23439, NaN
1473987780.04, 0.0153837669640779, -0.14208497107029, 0.170971691608429, 32113, 31347, 23425, NaN
1473987781.04, 0.0118973646312952, -0.141807302832603, 0.171344399452209, 32138, 31338, 23443, NaN
1473987781.042, 0.00784360151737928, -0.140878796577454, 0.170133203268051, 32122, 31343, 23436, NaN
1473987782.042, 0.0028626041021198, -0.140493020415306, 0.169825747609138, 32130, 31341, 23458, NaN
1473987783.042, -0.00577275408431888, -0.140503197908401, 0.16980142891407, 32128, 31332, 23444, NaN
1473987784.042, -0.0139980781823397, -0.14129613339901, 0.169021278619766, 32128, 31346, 23441, NaN
1473987785.042, -0.0204381123185158, -0.141264364123344, 0.168934926390648, 32115, 31346, 23438, NaN
1473987786.042, -0.0229207035154104, -0.141450956463814, 0.168120443820953, 32120, 31338, 23436, NaN
1473987787.042, -0.0246652401983738, -0.141925677657127, 0.168865948915482, 32144, 31357, 23447, NaN
1473987788.042, -0.0290050487965345, -0.143132939934731, 0.168621897697449, 32109, 31334, 23435, NaN
1473987789.042, -0.0328774824738503, -0.143443956971169, 0.167954683303833, 32123, 31335, 23438, NaN
1473987790.042, -0.0342497900128365, -0.143364906311035, 0.168278500437737, 32104, 31363, 23427, NaN
1473987791.042, -0.0327220857143402, -0.143282830715179, 0.167995944619179, 32118, 31348, 23446, NaN
1473987792.042, -0.0341876298189163, -0.142876550555229, 0.167845547199249, 32115, 31350, 23446, NaN
1473987793.042, -0.0401735715568066, -0.142626345157623, 0.167460471391678, 32120, 31338, 23444, NaN
1473987794.042, -0.0444963872432709, -0.142779991030693, 0.167241334915161, 32129, 31334, 23443, NaN
1473987795.042, -0.0446274913847446, -0.142408028244972, 0.167546480894089, 32136, 31359, 23437, NaN
1473987796.042, -0.044185247272253, -0.142309978604317, 0.167796537280083, 32117, 31341, 23453, NaN
1473987797.042, -0.0450726523995399, -0.142265841364861, 0.168413102626801, 32138, 31351, 23442, NaN
1473987798.042, -0.0435367599129677, -0.141445800662041, 0.169306397438049, 32125, 31337, 23441, NaN
1473987799.042, -0.0397801958024502, -0.141032740473747, 0.169620856642723, 32137, 31355, 23435, NaN
1473987800.042, -0.0358358100056648, -0.14076367020607, 0.168639197945595, 32131, 31340, 23451, NaN
1473987801.042, -0.0344566181302071, -0.140509977936745, 0.167984828352928, 32109, 31353, 23434, NaN
1473987802.042, -0.0330870635807514, -0.139791205525398, 0.168265387415886, 32116, 31352, 23440, NaN
1473987803.042, -0.0290283933281898, -0.139945492148399, 0.168517142534256, 32131, 31334, 23437, NaN
1473987804.042, -0.0257918182760477, -0.140051603317261, 0.168875768780708, 32129, 31333, 23434, NaN
1473987805.042, -0.0227383729070425, -0.140357166528702, 0.16853041946888, 32133, 31356, 23433, NaN
1473987806.042, -0.0201505683362484, -0.140539988875389, 0.168059587478638, 32117, 31328, 23462, NaN
1473987807.042, -0.0160145908594131, -0.1403678804636, 0.16806361079216, 32112, 31349, 23435, NaN
1473987808.042, -0.00908927619457245, -0.139557555317879, 0.168183445930481, 32143, 31339, 23428, NaN
1473987809.042, -0.00260572088882327, -0.13942152261734, 0.168311566114426, 32127, 31342, 23439, NaN
1473987809.042, 0.00486697582527995, -0.139350444078445, 0.167940571904182, 32125, 31351, 23440, NaN
1473987810.048, 0.00920439139008522, -0.138374015688896, 0.168504759669304, 32123, 31348, 23442, NaN
1473987811.048, 0.0131121799349785, -0.137888103723526, 0.168451383709908, 32119, 31340, 23447, NaN
1473987812.048, 0.0157826654613018, -0.137984052300453, 0.168843671679497, 32115, 31355, 23439, NaN
1473987813.048, 0.0196874998509884, -0.138508677482605, 0.168964847922325, 32133, 31366, 23438, NaN
1473987813.048, 0.0223731994628906, -0.137681603431702, 0.168923810124397, 32106, 31354, 23427, NaN
1473987814.056, 0.0245249476283789, -0.138164341449738, 0.168493837118149, 32121, 31341, 23434, NaN
1473987815.056, 0.0244117565453053, -0.138619586825371, 0.168157652020454, 32110, 31346, 23447, NaN
1473987816.056, 0.0222440585494041, -0.139691531658173, 0.168116822838783, 32137, 31356, 23430, NaN
1473987817.056, 0.020227974280715, -0.13938470184803, 0.168990433216095, 32120, 31343, 23446, NaN
1473987817.056, 0.0224359408020973, -0.139445051550865, 0.168819561600685, 32129, 31347, 23442, NaN
1473987818.064, 0.0276941657066345, -0.139961004257202, 0.16926421225071, 32125, 31332, 23442, NaN
1473987819.064, 0.0289122946560383, -0.139751747250557, 0.168378755450249, 32121, 31333, 23441, NaN